Flag for Canada Weather past 2 weeks in Kingston, Ontario, Canada

Now
43 °F

Broken clouds.


Feels Like: 43 °F
Forecast: 38 / 54 °F
Wind: 2 mph from Southwest

Location: Kingston

Current Time: Apr 26, 2015 at 10:03:25 PM

Latest Report: Apr 26, 2015 at 9:00 PM


Visibility: 15 mi

Pressure: 29.77 "Hg

Humidity: 81%

Dew point: 37 °F

Location of KingstonLocation

Historic Weather in Kingston — Graph

°F

Kingston temperature yesterday

Maximum temperature yesterday: 46 °F (at 6:00 PM)
Minimum temperature yesterday: 28 °F (at 6:00 AM)
Average temperature yesterday: 39 °F

Past Weeks' High & Low Weather Summary

 TemperatureHumidityPressure
High66 °F (Apr 18, 2:00 PM)100% (Apr 14, 6:00 AM)30.44 "Hg (Apr 14, 6:00 AM)
Low28 °F (Apr 25, 6:00 AM)24% (Apr 18, 4:00 PM)29.49 "Hg (Apr 20, 6:00 PM)
Average45 °F67%29.95 "Hg
* Reported Apr 11 8:00 PM — Apr 26 8:00 PM, Kingston, Weather by CustomWeather, © 2015

Note: Actual official high and low records may vary slightly from our data, if they occured in-between our weather recording intervals... More about our weather records

Advertising

Kingston weather history for previous 24 hours

 ConditionsComfort  
Time TempWeatherWind HumidityBarometerVisibility
8:00 PM
Sun, Apr 26
45 °FSprinkles. Overcast.No wind76%29.77 "Hg15 mi
7:00 PM46 °FScattered showers. Broken clouds.5 mph71%29.76 "Hg15 mi
6:00 PM46 °FScattered showers. Broken clouds.10 mph66%29.76 "Hg15 mi
5:00 PM45 °FSprinkles. Broken clouds.8 mph81%29.77 "Hg15 mi
4:00 PM45 °FPartly sunny.12 mph76%29.78 "Hg15 mi
3:00 PM46 °FOvercast.12 mph66%29.78 "Hg15 mi
2:00 PM46 °FPartly sunny.15 mph66%29.78 "Hg15 mi
1:00 PM48 °FPartly sunny.8 mph62%29.78 "Hg15 mi
12:00 PM48 °FBroken clouds.6 mph62%29.80 "Hg15 mi
11:00 AM46 °FPartly sunny.7 mph62%29.80 "Hg15 mi
10:00 AM45 °FBroken clouds.6 mph66%29.80 "Hg15 mi
9:00 AM43 °FScattered clouds.8 mph71%29.81 "Hg15 mi
8:00 AM41 °FPartly sunny.9 mph76%29.81 "Hg15 mi
7:00 AM37 °FPassing clouds.6 mph81%29.81 "Hg15 mi
6:00 AM37 °FPassing clouds.7 mph75%29.79 "Hg15 mi
11:00 PM
Sat, Apr 25
37 °FPassing clouds.2 mph87%29.81 "Hg15 mi
10:00 PM39 °FPartly cloudy.3 mph87%29.81 "Hg15 mi
Weather by CustomWeather, © 2015

See weather overviewHow to use our weather pages